Change the Weather History Date:

Saturday, February 18, 2012

  Actual Average Record
Temperature  
Mean Temperature 44 °F 41 °F  
Max Temperature 48 °F 51 °F 75 °F (1986)
Min Temperature 40 °F 31 °F -7 °F (1910)
Degree Days  
Heating Degree Days 21 24  
Month to date heating degree days 454 462  
Since 1 July heating degree days 2567 2948  
Cooling Degree Days 0 0  
Month to date cooling degree days 0 0  
Year to date cooling degree days 0 0  
Moisture  
Dew Point 36 °F    
Average Humidity 72    
Maximum Humidity 89    
Minimum Humidity 55    
Precipitation  
Precipitation T in 0.09 in 1.48 in (1938)
Month to date precipitation 1.63 1.63  
Year to date precipitation 4.89 4.19  
Snow  
Snow 0.00 in 0.10 in 4.00 in (2006)
Month to date snowfall 1.0 2.2  
Since 1 July snowfall 2.1 8.2  
Snow Depth 0.00 in    
Sea Level Pressure  
Sea Level Pressure 30.06 in    
Wind  
Wind Speed 6 mph (North)    
Max Wind Speed 13 mph    
Max Gust Speed 16 mph    
Visibility 8 miles    
Events Rain    
T = Trace of Precipitation, MM = Missing Value Source: NWS Daily Summary

Daily Weather History Graph

Daily Weather History Graph

Search for Another Location

Airport or City:

Trip Planner

Search our weather history database for the weather conditions in past years. The results will help you decide how hot, cold, wet, or windy it might be!

Date:

Astronomy

Feb. 18, 2012 Rise Set
Actual Time 6:57 AM CST 5:56 PM CST
Civil Twilight 6:31 AM CST 6:22 PM CST
Nautical Twilight 6:01 AM CST 6:52 PM CST
Astronomical Twilight 5:31 AM CST 7:22 PM CST
Moon 4:32 AM CST (2/18) 2:57 PM CST (2/18)
Length of Visible Light 11h 51m
Length of Day
10h 58m
Waning Crescent, 11% of the Moon is Illuminated
Feb 18
Waning Crescent
Feb 21
New
Feb 29
First Quarter
Mar 8
Full
Mar 14
Last Quarter

Hourly Weather History & Observations

Time (CST) Temp. Windchill Dew Point Humidity Pressure Visibility Wind Dir Wind Speed Gust Speed Precip Events Conditions
12:53 AM 45.0 °F 43.5 °F 41.0 °F 86% 30.11 in 8.0 mi North 3.5 mph - N/A   Overcast
1:53 AM 44.1 °F - 41.0 °F 89% 30.10 in 7.0 mi Calm Calm - 0.00 in   Overcast
2:53 AM 43.0 °F - 41.0 °F 93% 30.07 in 6.0 mi Calm Calm - 0.00 in Rain Light Rain
3:53 AM 43.0 °F - 41.0 °F 93% 30.06 in 6.0 mi Calm Calm - 0.00 in   Overcast
4:53 AM 42.1 °F - 39.9 °F 92% 30.06 in 5.0 mi Calm Calm - 0.00 in   Overcast
5:53 AM 42.1 °F 40.2 °F 39.9 °F 92% 30.06 in 5.0 mi NNW 3.5 mph - N/A   Overcast
6:53 AM 42.1 °F 39.2 °F 39.9 °F 92% 30.07 in 6.0 mi West 4.6 mph - N/A   Overcast
7:53 AM 44.6 °F - 41.0 °F 87% 30.08 in 5.0 mi Calm Calm - N/A   Overcast
8:53 AM 44.6 °F 43.1 °F 41.0 °F 87% 30.09 in 5.0 mi Variable 3.5 mph - N/A   Overcast
9:53 AM 45.0 °F 41.2 °F 39.9 °F 82% 30.11 in 6.0 mi NNE 6.9 mph - N/A   Haze
10:53 AM 46.0 °F 43.1 °F 39.9 °F 79% 30.09 in 8.0 mi NNE 5.8 mph - N/A   Overcast
11:53 AM 46.0 °F 41.4 °F 39.0 °F 76% 30.07 in 9.0 mi NE 9.2 mph - N/A   Overcast
12:53 PM 46.0 °F 41.0 °F 37.0 °F 71% 30.03 in 10.0 mi NNE 10.4 mph - N/A   Overcast
1:53 PM 46.0 °F 41.4 °F 36.0 °F 68% 30.03 in 10.0 mi NE 9.2 mph - N/A   Overcast
2:53 PM 46.9 °F - 34.0 °F 61% 30.01 in 10.0 mi North 10.4 mph - N/A   Overcast
3:53 PM 46.9 °F - 34.0 °F 61% 30.01 in 10.0 mi NNE 10.4 mph - N/A   Scattered Clouds
4:53 PM 45.0 °F 39.3 °F 33.1 °F 63% 30.01 in 10.0 mi NNE 11.5 mph - N/A   Overcast
5:53 PM 44.1 °F 40.1 °F 33.1 °F 65% 30.02 in 10.0 mi NNE 6.9 mph - N/A   Overcast
6:53 PM 43.0 °F 38.2 °F 32.0 °F 65% 30.04 in 10.0 mi North 8.1 mph - N/A   Overcast
7:53 PM 43.0 °F 40.3 °F 30.9 °F 62% 30.05 in 10.0 mi North 4.6 mph - N/A   Overcast
8:53 PM 43.0 °F 38.2 °F 28.9 °F 58% 30.05 in 10.0 mi North 8.1 mph - N/A   Overcast
9:53 PM 42.1 °F 38.4 °F 30.0 °F 62% 30.05 in 10.0 mi North 5.8 mph - N/A   Overcast
10:53 PM 41.0 °F 38.0 °F 27.0 °F 57% 30.05 in 10.0 mi NNE 4.6 mph - N/A   Overcast
11:53 PM 39.9 °F 34.5 °F 25.0 °F 55% 30.04 in 10.0 mi North 8.1 mph - N/A   Overcast